Weather Roundup
Issued by NWS

Home | Current Version | Previous Version | Text Only | Print | Product List | Glossary On
Versions: 1 2 3 4 5 6 7 8 9 10 11 12 13 14 15 16 17 18 19 20 21 22 23 24 25 26 27 28 29 30 31 32 33 34 35 36 37 38 39 40 41 42 43 44 45 46 47 48 49 50
000
NZUS93 KARX 250559
HRRWXR

CURRENT HOURLY OBSERVATIONS ACROSS
MUCH OF THE UPPER MISSISSIPPI VALLEY
NATIONAL WEATHER SERVICE LA CROSSE WI
100 AM CDT TUE APR 25 2017


...SOUTHEAST MINNESOTA...


CITY           SKY/WX    TMP DP  RH WIND       PRES   REMARKS
ROCHESTER      CLOUDY    57  34  41 S13       29.59F
ROCHESTER/MAYO CLOUDY    61  32  34 SE8G18    29.58S
WINONA         CLOUDY    63  32  31 S5        29.60F
AUSTIN         MOCLDY    57  34  41 S7        29.56F
ALBERT LEA     CLOUDY    59  30  33 S9        29.55S
DODGE CENTER   CLOUDY    61  32  33 S16       29.56F
PRESTON        CLOUDY    58  31  36 S12       29.60S
OWATONNA       CLOUDY    63  30  29 S14       29.54F
FARIBAULT      CLOUDY    64  32  29 SE16      29.53F
$$

...ELSEWHERE IN MINNESOTA...


CITY           SKY/WX    TMP DP  RH WIND       PRES   REMARKS
MINNEAPOLIS    CLOUDY    58  47  66 SE6       29.53F
INTNL FALLS    LGT RAIN  36  33  89 NE3       29.65R
DULUTH         CLOUDY    39  33  79 E8        29.63R WCI  33
RED WING       CLOUDY    64  28  25 SE12      29.55F
REDWOOD FALLS  CLOUDY    49  43  80 NW15      29.53R
MANKATO        CLOUDY    61  34  36 S10       29.51F
WORTHINGTON    PTCLDY    49  44  83 N13       29.53S
FAIRMONT       CLOUDY    60  37  42 S12       29.51S
$$

...SOUTHWEST WISCONSIN...


CITY           SKY/WX    TMP DP  RH WIND       PRES   REMARKS
LA CROSSE      CLOUDY    66  31  27 SE12      29.61F
PRAIRIE DU CHI CLEAR     57  32  37 E8        29.63F
BOSCOBEL       CLEAR     62  31  31 VRB6      29.66F
LONE ROCK      NOT AVBL
PLATTEVILLE    CLEAR     55  34  44 SE8       29.69S
FORT MC COY    CLOUDY    60  33  35 SE8       29.67S
MAUSTON-NEW LI CLOUDY    60  36  41 SE5       29.68S
VIROQUA        FAIR      58  30  34 SE13      29.66S
WIS DELLS      CLOUDY    60  29  31 SE9       29.71R
$$

...ELSEWHERE IN WISCONSIN...


CITY           SKY/WX    TMP DP  RH WIND       PRES   REMARKS
MILWAUKEE      CLOUDY    48  37  65 CALM      29.77F
MADISON        MOCLDY    60  32  34 SE10      29.71S
GREEN BAY      CLOUDY    50  38  63 CALM      29.79R
EAU CLAIRE     NOT AVBL
BLACK RVR FLS  FAIR      63  28  26 SE7       29.64F
MEDFORD        CLOUDY    55  33  41 SE7       29.68F
WAUSAU         CLOUDY    58  31  35 SE10      29.69S
WIS RAPIDS     NOT AVBL
MARSHFIELD     CLOUDY    58  34  40 S9        29.68S
RICE LAKE      CLOUDY    64  30  28 SE16      29.60F
$$

...NORTHEAST IOWA...


CITY           SKY/WX    TMP DP  RH WIND       PRES   REMARKS
WATERLOO       PTCLDY    61  30  31 S13       29.59F
DUBUQUE        CLEAR     58  31  35 SE14      29.67F
DECORAH        CLEAR     57  32  38 SE10      29.61F
MASON CITY     CLOUDY    58  34  40 S13       29.57F
CHARLES CITY   CLOUDY    59  30  33 SE12      29.59F
OELWEIN        NOT AVBL
$$

...ELSEWHERE IN IOWA...


CITY           SKY/WX    TMP DP  RH WIND       PRES   REMARKS
DES MOINES     CLOUDY    63  37  38 S8        29.57F
IOWA CITY      CLEAR     55  36  48 CALM      29.65F
FORT DODGE     CLOUDY    64  36  34 S9        29.55S
MARSHALLTOWN   CLOUDY    60  34  37 SE12      29.58S
CEDAR RAPIDS   CLEAR     58  32  37 S9        29.62F
$$

...NORTHERN ILLINOIS...


CITY           SKY/WX    TMP DP  RH WIND       PRES   REMARKS
CHICAGO-OHARE  PTCLDY    56  38  50 SE10      29.74F
CHICAGO-MIDWAY CLEAR     60  39  45 SE13      29.75F
MOLINE         CLEAR     49  35  58 SE7       29.67F
ROCKFORD       CLOUDY    59  35  40 SE13      29.73S
PEORIA         CLEAR     58  32  37 S5        29.71S
$$

NOTE: "FAIR" INDICATES FEW OR NO CLOUDS BELOW 12,000 FEET WITH NO
SIGNIFICANT WEATHER AND/OR OBSTRUCTIONS TO VISIBILITY. WIND
SPEEDS ARE IN MILES-PER-HOUR.




USA.gov is the U.S. government's official web portal to all federal, state and local government web resources and services.